CAPE
1413 1849 2208 2577 2213 1909 1226 864 804 692 698 653 575 354 276 436 945 2173 2929 3209 2926 2762 2643 2277 2004 1622 1369 1338 1325 1404 1330 6 1 0 0 0 0 0 0 0 0 0
1965 2000 2668 2658 2388 2902 2493 1285 914 910 788 654 632 274 231 1131 2461 2647 2525 2506 2343 2162 1924 1699 1380 1208 1174 1245 1192 1236 148 0 0 0 0 0 0 0 0 0 0 0
2166 2104 2267 2457 2365 2103 2064 2070 1866 1488 1105 815 619 491 846 2127 2522 2393 2283 2169 1967 1739 1478 1314 1210 1142 1244 1187 1120 335 0 0 0 0 0 0 0 0 0 0 0 0
2315 2241 2164 2273 2314 2150 1930 1798 1808 1806 1716 1424 1067 839 2326 2380 2273 2196 2082 1879 1593 1397 1317 1290 1232 1355 1181 1067 750 0 0 0 0 0 0 0 0 0 0 0 0 0
2377 2286 2042 2021 2068 2074 1948 1716 1570 1557 1520 1246 1022 1796 2490 2262 2125 1944 1781 1646 1535 1400 1338 1334 1334 1250 1004 931 0 0 0 0 0 0 0 0 0 0 0 0 0 0
2351 2310 2008 1910 1870 1845 1678 1482 1403 1307 1124 1958 2113 2133 2141 2027 1936 1834 1759 1648 1458 1331 1287 1322 1110 956 1055 438 0 0 0 0 0 0 0 0 0 0 0 0 0 0
2186 2171 2140 2012 1898 1812 1630 1308 1076 840 1673 2156 2170 2081 1995 1955 1886 1815 1654 1397 1328 1304 1285 1031 962 1176 400 406 0 0 0 0 0 0 0 0 0 0 0 0 0 0
1942 1882 1949 2033 1987 1832 1509 1129 859 1248 2099 1968 2104 2026 1830 1639 1514 1417 1464 1435 1285 976 897 1071 1328 509 389 369 0 0 0 0 0 0 0 0 0 0 0 0 0 0
2070 1789 1655 1770 1803 1772 1512 1065 1429 2199 2010 1813 1637 1676 1612 1553 1518 1445 1223 990 842 876 999 1167 848 317 381 334 0 0 0 0 0 0 0 0 0 0 0 0 0 0
2037 1882 1606 1510 1533 1523 1390 1308 2278 2048 1917 1650 1621 1646 1599 1428 1262 1169 1029 829 704 780 1100 1121 470 298 380 301 0 0 0 0 0 0 0 0 0 0 0 0 0 0
1877 1789 1533 1372 1328 1250 1558 2190 2182 1965 1846 1688 1660 1603 1488 1393 1269 975 706 602 773 1058 1236 822 103 202 374 277 0 0 0 0 0 0 0 0 0 0 0 0 0 0
1529 1615 1418 1145 1450 2362 2300 2162 2080 2024 1902 1791 1709 1626 1463 1247 931 639 486 740 996 1028 1131 517 0 186 378 165 0 0 0 0 0 0 0 0 0 0 0 0 0 0
1239 1178 1286 1284 2841 2487 2159 2065 2038 2014 1917 1814 1719 1497 1231 934 789 769 613 657 936 1133 903 158 0 168 373 167 0 0 0 0 0 0 0 0 0 0 0 0 0 0
1845 1027 747 2417 2654 2284 2105 2008 1994 1986 1880 1745 1638 1424 1233 1169 1126 931 434 638 929 1174 655 0 0 304 354 178 0 0 0 0 0 0 0 0 0 0 0 0 0 0
2410 2779 2907 2953 2461 2217 2098 2056 2004 1991 1930 1844 1664 1440 1362 1274 1144 906 86 697 983 1092 437 0 115 313 317 171 0 0 0 0 0 0 0 0 0 0 0 0 0 0
3725 3619 3060 2589 2300 2174 2101 2075 2041 2015 1943 1797 1637 1522 1422 1311 1116 700 632 965 1238 1001 461 0 212 287 312 204 192 11 0 0 0 0 0 0 0 0 0 0 0 0
3974 3373 2861 2458 2249 2159 2161 2102 2029 1947 1826 1696 1560 1479 1389 1262 982 94 613 1049 1300 909 422 240 236 289 309 221 87 114 30 0 0 0 0 0 0 0 0 0 0 0
3961 3352 2844 2503 2360 2258 2189 2100 1958 1804 1662 1556 1511 1433 1343 1179 756 0 811 1194 1306 716 468 219 48 301 307 256 146 39 1 0 0 0 0 0 0 0 0 0 0 0
3948 3344 2885 2675 2609 2480 2313 2139 1896 1718 1627 1569 1528 1432 1304 1003 0 0 946 1279 1158 733 444 0 46 297 297 283 211 36 0 0 0 0 0 0 0 0 0 0 0 0
3940 3337 2984 2817 2709 2541 2368 2168 1950 1767 1650 1573 1482 1364 1169 596 0 448 938 1210 1191 587 396 281 275 262 290 289 243 60 0 0 0 0 0 0 0 0 0 0 0 0
3939 3407 3087 2929 2750 2595 2387 2198 1971 1836 1709 1608 1508 1337 972 0 0 456 982 1281 1014 593 368 272 248 255 270 300 280 96 0 0 0 0 0 0 0 0 0 0 0 0
3948 3510 3205 3043 2849 2698 2474 2257 2051 1913 1736 1603 1466 1222 793 0 0 548 976 1290 957 507 387 290 253 254 281 279 284 176 0 0 0 0 0 0 0 0 0 0 0 0
3971 3526 3242 3011 2861 2711 2582 2363 2176 1993 1834 1564 1354 1048 449 0 116 551 948 1148 1006 552 393 314 263 266 253 251 281 185 10 0 0 0 0 0 0 0 0 0 0 0
3995 3528 3227 3056 2894 2769 2620 2494 2248 1998 1785 1519 1226 800 326 0 63 591 783 1024 869 627 362 333 286 264 232 265 246 166 0 0 0 0 0 0 0 0 0 0 0 0
4079 3624 3311 3138 2969 2857 2736 2544 2314 2055 1732 1400 1119 754 284 0 401 623 807 947 820 557 379 323 177 0 0 0 0 0 0 0 0 0 0 0 0 0 0 0 0 0
4158 3788 3464 3210 3031 2987 2797 2607 2306 2044 1703 1315 967 603 248 66 426 602 868 1012 771 549 36 0 0 0 0 0 0 0 0 0 0 0 0 0 0 0 0 0 0 0
Wind_Speed
16 16 16 17 16 13 14 12 10 10 11 10 10 11 9 7 4 1 1 5 7 9 10 11 12 14 16 18 20 22 23 nan nan nan nan nan nan nan nan nan nan nan
14 15 17 16 16 16 14 12 12 11 12 11 11 9 5 3 2 3 4 6 8 10 10 12 14 16 17 18 20 22 23 nan nan nan nan nan nan nan nan nan nan nan
13 14 14 15 16 16 16 13 11 11 10 12 11 7 1 2 3 2 4 6 9 10 11 14 15 16 18 20 22 23 nan nan nan nan nan nan nan nan nan nan nan nan
12 12 12 13 15 15 16 14 13 13 12 12 11 6 2 3 5 7 6 8 10 11 13 14 16 17 19 21 23 nan nan nan nan nan nan nan nan nan nan nan nan nan
10 11 12 13 14 14 15 15 14 13 12 11 8 2 2 4 6 8 8 9 10 12 13 15 17 18 20 22 nan nan nan nan nan nan nan nan nan nan nan nan nan nan
9 10 11 11 12 12 13 14 14 13 11 8 7 4 5 6 8 9 9 11 11 12 14 15 18 19 21 23 nan nan nan nan nan nan nan nan nan nan nan nan nan nan
8 9 8 8 9 10 10 11 13 12 9 7 7 8 7 8 9 10 11 12 13 14 15 16 18 20 21 24 nan nan nan nan nan nan nan nan nan nan nan nan nan nan
9 9 8 8 7 8 8 8 10 11 9 8 10 8 7 8 10 10 11 13 14 15 16 17 20 21 22 24 nan nan nan nan nan nan nan nan nan nan nan nan nan nan
10 10 9 8 7 7 7 7 11 13 10 11 11 9 8 9 10 12 12 14 15 15 17 19 20 22 23 25 nan nan nan nan nan nan nan nan nan nan nan nan nan nan
12 10 9 10 9 7 8 11 14 15 12 13 11 9 11 10 11 13 13 15 16 16 18 20 21 22 24 25 nan nan nan nan nan nan nan nan nan nan nan nan nan nan
13 13 11 10 8 10 12 14 17 15 12 13 13 12 12 12 12 13 15 15 17 18 20 21 22 23 24 25 nan nan nan nan nan nan nan nan nan nan nan nan nan nan
13 13 12 11 14 15 14 16 17 15 14 14 14 15 14 13 15 14 15 17 17 19 21 22 nan 23 25 26 nan nan nan nan nan nan nan nan nan nan nan nan nan nan
14 12 11 15 16 16 17 17 18 16 16 15 14 16 16 17 17 17 16 18 19 19 21 22 nan 23 24 25 nan nan nan nan nan nan nan nan nan nan nan nan nan nan
13 11 12 15 16 17 18 18 17 16 16 16 16 17 18 18 19 19 18 19 19 21 21 nan nan 23 24 25 nan nan nan nan nan nan nan nan nan nan nan nan nan nan
19 18 17 17 17 17 17 18 17 16 16 16 17 17 17 19 19 21 nan 21 21 22 23 nan 24 25 25 26 nan nan nan nan nan nan nan nan nan nan nan nan nan nan
20 19 19 19 18 17 17 17 16 16 16 16 16 17 18 19 21 21 21 21 23 23 23 nan 24 23 27 30 29 nan nan nan nan nan nan nan nan nan nan nan nan nan
20 19 20 20 19 18 17 17 17 16 17 17 16 17 19 20 21 nan 21 21 22 24 24 24 24 25 29 26 nan 32 nan nan nan nan nan nan nan nan nan nan nan nan
20 19 21 21 20 18 17 17 18 18 17 17 17 18 18 20 21 nan 21 21 22 23 24 24 nan 28 28 28 29 nan nan nan nan nan nan nan nan nan nan nan nan nan
21 20 21 21 20 19 18 18 18 19 18 17 17 17 19 21 nan nan 22 22 23 24 24 nan nan 28 29 30 35 nan nan nan nan nan nan nan nan nan nan nan nan nan
21 21 21 21 20 19 18 18 18 17 17 17 18 18 20 21 nan 22 22 22 22 23 24 24 24 28 29 34 39 nan nan nan nan nan nan nan nan nan nan nan nan nan
21 21 21 21 20 19 18 17 18 19 18 18 18 18 20 nan nan 23 22 23 22 22 23 24 24 28 31 36 41 nan nan nan nan nan nan nan nan nan nan nan nan nan
21 21 22 22 21 20 19 18 18 19 20 19 19 19 19 nan nan 22 24 24 22 22 24 24 24 28 32 36 41 42 nan nan nan nan nan nan nan nan nan nan nan nan
22 22 22 22 22 21 20 19 20 21 21 20 20 20 21 nan 22 23 23 24 24 23 25 25 25 27 32 36 40 42 nan nan nan nan nan nan nan nan nan nan nan nan
22 22 23 23 23 22 21 20 21 23 23 21 21 21 21 nan nan 24 24 24 24 25 26 27 26 28 32 35 38 39 nan nan nan nan nan nan nan nan nan nan nan nan
22 22 23 24 23 22 23 22 22 23 23 22 22 22 21 nan 22 24 24 23 23 25 29 29 27 nan nan nan nan nan nan nan nan nan nan nan nan nan nan nan nan nan
22 22 23 24 23 24 25 25 24 24 23 23 22 21 21 nan 22 24 25 24 24 25 nan nan nan nan nan nan nan nan nan nan nan nan nan nan nan nan nan nan nan nan
Wind_Direction
149 148 145 146 141 135 127 122 117 114 104 95 89 93 89 95 104 82 2 309 300 307 312 316 330 338 338 337 338 341 344 nan nan nan nan nan nan nan nan nan nan nan
151 151 151 150 144 144 138 136 138 130 123 121 109 108 126 88 44 326 325 297 294 300 314 327 338 339 335 334 338 338 339 nan nan nan nan nan nan nan nan nan nan nan
158 156 152 150 145 143 140 148 138 130 126 120 118 111 97 24 321 280 292 296 298 314 332 341 337 331 329 334 335 333 nan nan nan nan nan nan nan nan nan nan nan nan
159 158 155 154 153 147 145 149 144 142 140 133 124 123 16 319 294 297 298 303 315 329 338 334 327 328 332 333 330 nan nan nan nan nan nan nan nan nan nan nan nan nan
169 162 163 161 158 153 150 151 148 142 154 162 155 169 272 275 285 287 292 303 321 329 331 326 328 328 328 327 nan nan nan nan nan nan nan nan nan nan nan nan nan nan
185 181 173 168 160 154 150 148 144 151 186 193 189 205 241 255 270 283 298 312 321 322 323 326 322 321 322 325 nan nan nan nan nan nan nan nan nan nan nan nan nan nan
194 197 181 176 167 158 157 149 143 172 203 217 214 218 242 261 279 294 305 310 314 318 318 319 314 317 324 327 nan nan nan nan nan nan nan nan nan nan nan nan nan nan
191 204 195 196 180 162 164 145 173 199 221 222 236 235 252 274 283 291 298 303 307 308 309 308 313 320 326 327 nan nan nan nan nan nan nan nan nan nan nan nan nan nan
195 200 202 205 197 178 151 175 213 233 228 231 235 246 247 265 279 287 294 298 299 304 307 311 317 322 326 327 nan nan nan nan nan nan nan nan nan nan nan nan nan nan
192 194 198 208 206 191 168 205 232 240 237 242 242 243 255 257 273 288 293 294 299 303 306 313 318 322 325 328 nan nan nan nan nan nan nan nan nan nan nan nan nan nan
192 193 197 201 201 205 210 224 238 246 245 255 257 255 258 270 275 281 287 295 300 306 309 313 319 322 325 326 nan nan nan nan nan nan nan nan nan nan nan nan nan nan
201 200 195 195 211 223 227 230 241 250 254 252 263 266 264 269 276 278 289 293 299 304 308 313 nan 321 323 326 nan nan nan nan nan nan nan nan nan nan nan nan nan nan
209 206 206 208 214 224 225 228 236 243 252 259 260 266 268 269 272 279 284 292 296 300 304 310 nan 317 319 320 nan nan nan nan nan nan nan nan nan nan nan nan nan nan
213 211 218 223 219 222 229 232 234 237 244 251 258 262 265 271 276 280 283 288 294 296 300 nan nan 310 312 314 nan nan nan nan nan nan nan nan nan nan nan nan nan nan
220 219 224 229 230 228 231 234 235 238 243 249 256 262 265 270 273 278 nan 286 289 293 296 nan 304 308 312 314 nan nan nan nan nan nan nan nan nan nan nan nan nan nan
227 227 231 233 233 232 232 234 237 242 247 252 258 264 268 271 273 275 281 289 292 293 296 nan 302 307 308 307 312 nan nan nan nan nan nan nan nan nan nan nan nan nan
230 231 235 237 235 232 231 236 239 243 248 253 260 266 272 273 276 nan 283 288 292 295 298 300 304 307 303 307 nan 316 nan nan nan nan nan nan nan nan nan nan nan nan
233 232 238 239 239 238 237 236 240 246 252 256 263 269 270 273 277 nan 287 290 292 295 299 303 nan 305 306 310 312 nan nan nan nan nan nan nan nan nan nan nan nan nan
239 238 239 242 243 243 240 242 247 251 256 261 267 268 270 276 nan nan 289 292 296 299 301 nan nan 309 311 312 313 nan nan nan nan nan nan nan nan nan nan nan nan nan
241 243 244 246 246 245 245 247 252 258 258 257 262 265 272 276 nan 285 290 294 298 300 301 304 308 309 311 313 314 nan nan nan nan nan nan nan nan nan nan nan nan nan
239 243 246 247 249 249 247 249 253 255 258 259 263 270 277 nan nan 290 292 294 296 299 301 304 308 309 309 312 316 nan nan nan nan nan nan nan nan nan nan nan nan nan
244 243 247 249 251 250 251 251 254 262 264 260 261 264 269 nan nan 287 293 295 298 301 302 305 307 307 309 314 318 321 nan nan nan nan nan nan nan nan nan nan nan nan
248 250 250 253 255 256 255 255 259 260 261 262 268 273 279 nan 290 292 293 298 303 306 307 308 309 309 312 317 321 322 nan nan nan nan nan nan nan nan nan nan nan nan
246 251 255 256 257 261 261 257 255 255 263 267 275 280 283 nan nan 291 295 302 308 310 310 309 310 311 313 318 323 323 nan nan nan nan nan nan nan nan nan nan nan nan
243 248 255 259 262 261 261 263 263 264 262 265 269 273 281 nan 289 292 297 302 306 307 311 308 310 nan nan nan nan nan nan nan nan nan nan nan nan nan nan nan nan nan
240 248 252 258 262 260 259 259 258 262 267 269 269 274 282 nan 290 294 299 302 304 304 nan nan nan nan nan nan nan nan nan nan nan nan nan nan nan nan nan nan nan nan